| time (UTC) | temp F | wind direction | speed MPH | gust MPH | rain 1hr in | rain 24hr in | rain mn in | humidity % | barometer mb |
| 20260509233504 | 36 | 337 | 0.0 | 1.0 | 0.00 | 0.00 | 0.00 | 95 | 1019.5 |
| 20260509233025 | 36 | 337 | 0.0 | 1.0 | 0.00 | 0.00 | 0.00 | 95 | 1019.5 |
| 20260509232504 | 36 | 337 | 0.0 | 1.0 | 0.00 | 0.00 | 0.00 | 95 | 1019.5 |
| 20260509232004 | 36 | 337 | 0.0 | 1.0 | 0.00 | 0.00 | 0.00 | 95 | 1019.8 |
| 20260509231504 | 36 | 0 | 0.0 | 0.0 | 0.00 | 0.00 | 0.00 | 94 | 1019.7 |
| 20260509231004 | 36 | 0 | 0.0 | 0.0 | 0.00 | 0.00 | 0.00 | 94 | 1019.7 |
| 20260509230504 | 36 | 0 | 0.0 | 0.0 | 0.00 | 0.00 | 0.00 | 94 | 1019.7 |
| 20260509230004 | 36 | 0 | 0.0 | 0.0 | 0.00 | 0.00 | 0.00 | 93 | 1019.8 |
| 20260509225504 | 37 | 0 | 0.0 | 0.0 | 0.00 | 0.00 | 0.00 | 93 | 1019.9 |
| 20260509225004 | 37 | 0 | 0.0 | 0.0 | 0.00 | 0.00 | 0.00 | 93 | 1019.9 |
| 20260509224504 | 37 | 0 | 0.0 | 0.0 | 0.00 | 0.00 | 0.00 | 93 | 1019.9 |
| 20260509224004 | 37 | 0 | 0.0 | 0.0 | 0.00 | 0.00 | 0.00 | 92 | 1020.1 |
| 20260509223504 | 37 | 0 | 0.0 | 0.0 | 0.00 | 0.00 | 0.00 | 92 | 1020.0 |
| 20260509223005 | 38 | 337 | 0.0 | 1.0 | 0.00 | 0.00 | 0.00 | 92 | 1020.0 |
| 20260509222504 | 38 | 337 | 0.0 | 1.0 | 0.00 | 0.00 | 0.00 | 92 | 1020.1 |
| 20260509222025 | 38 | 337 | 0.0 | 1.0 | 0.00 | 0.00 | 0.00 | 92 | 1020.2 |
| 20260509221505 | 38 | 337 | 0.0 | 1.0 | 0.00 | 0.00 | 0.00 | 92 | 1020.2 |
| 20260509221025 | 38 | 337 | 0.0 | 1.0 | 0.00 | 0.00 | 0.00 | 92 | 1020.2 |
| 20260509220505 | 39 | 0 | 0.0 | 0.0 | 0.00 | 0.00 | 0.00 | 91 | 1020.2 |
| 20260509220028 | 39 | 0 | 0.0 | 0.0 | 0.00 | 0.00 | 0.00 | 91 | 1020.3 |
| 20260509215504 | 39 | 337 | 0.0 | 1.0 | 0.00 | 0.00 | 0.00 | 91 | 1020.2 |
| 20260509215005 | 39 | 337 | 0.0 | 1.0 | 0.00 | 0.00 | 0.00 | 89 | 1020.1 |
| 20260509214504 | 39 | 0 | 0.0 | 0.0 | 0.00 | 0.00 | 0.00 | 87 | 1020.2 |
| 20260509214004 | 40 | 0 | 0.0 | 0.0 | 0.00 | 0.00 | 0.00 | 87 | 1020.2 |
| 20260509213505 | 40 | 0 | 0.0 | 0.0 | 0.00 | 0.00 | 0.00 | 87 | 1020.3 |
| 20260509213005 | 40 | 0 | 0.0 | 0.0 | 0.00 | 0.00 | 0.00 | 87 | 1020.3 |
| 20260509212525 | 40 | 0 | 0.0 | 0.0 | 0.00 | 0.00 | 0.00 | 88 | 1020.2 |
| 20260509212026 | 40 | 337 | 0.0 | 1.0 | 0.00 | 0.00 | 0.00 | 88 | 1020.3 |
| 20260509211505 | 40 | 337 | 0.0 | 1.0 | 0.00 | 0.00 | 0.00 | 88 | 1020.1 |
| 20260509211004 | 40 | 337 | 0.0 | 1.0 | 0.00 | 0.00 | 0.00 | 87 | 1020.2 |
| 20260509210503 | 40 | 0 | 0.0 | 0.0 | 0.00 | 0.00 | 0.00 | 87 | 1020.2 |
| 20260509210004 | 40 | 0 | 0.0 | 0.0 | 0.00 | 0.00 | 0.00 | 86 | 1020.3 |
| 20260509205504 | 40 | 0 | 0.0 | 0.0 | 0.00 | 0.00 | 0.00 | 85 | 1020.4 |
| 20260509205004 | 40 | 0 | 0.0 | 0.0 | 0.00 | 0.00 | 0.00 | 81 | 1020.3 |
| 20260509204504 | 41 | 0 | 0.0 | 0.0 | 0.00 | 0.00 | 0.00 | 80 | 1020.3 |
| 20260509204004 | 41 | 0 | 0.0 | 0.0 | 0.00 | 0.00 | 0.00 | 80 | 1020.2 |
| 20260509203504 | 41 | 0 | 0.0 | 0.0 | 0.00 | 0.00 | 0.00 | 79 | 1020.2 |
| 20260509203005 | 42 | 0 | 0.0 | 0.0 | 0.00 | 0.00 | 0.00 | 78 | 1020.2 |
| 20260509202504 | 42 | 0 | 0.0 | 0.0 | 0.00 | 0.00 | 0.00 | 77 | 1020.3 |
| 20260509202025 | 42 | 0 | 0.0 | 0.0 | 0.00 | 0.00 | 0.00 | 76 | 1020.2 |
| 20260509201505 | 42 | 0 | 0.0 | 0.0 | 0.00 | 0.00 | 0.00 | 75 | 1020.4 |
| 20260509201004 | 42 | 0 | 0.0 | 0.0 | 0.00 | 0.00 | 0.00 | 75 | 1020.3 |
| 20260509200505 | 43 | 0 | 0.0 | 0.0 | 0.00 | 0.00 | 0.00 | 75 | 1020.5 |
| 20260509200004 | 43 | 0 | 0.0 | 0.0 | 0.00 | 0.00 | 0.00 | 74 | 1020.5 |
| 20260509195504 | 43 | 0 | 0.0 | 0.0 | 0.00 | 0.00 | 0.00 | 74 | 1020.4 |
| 20260509195004 | 43 | 0 | 0.0 | 0.0 | 0.00 | 0.00 | 0.00 | 73 | 1020.5 |
| 20260509194504 | 44 | 0 | 0.0 | 0.0 | 0.00 | 0.00 | 0.00 | 73 | 1020.5 |
| 20260509194004 | 44 | 0 | 0.0 | 0.0 | 0.00 | 0.00 | 0.00 | 72 | 1020.5 |
| 20260509193504 | 44 | 0 | 0.0 | 0.0 | 0.00 | 0.00 | 0.00 | 72 | 1020.4 |
| 20260509193004 | 44 | 0 | 0.0 | 0.0 | 0.00 | 0.00 | 0.00 | 72 | 1020.6 |
| 20260509192504 | 45 | 337 | 0.0 | 1.0 | 0.00 | 0.00 | 0.00 | 72 | 1020.7 |
| 20260509192004 | 45 | 337 | 0.0 | 1.0 | 0.00 | 0.00 | 0.00 | 72 | 1020.6 |
| 20260509191505 | 45 | 337 | 0.0 | 1.0 | 0.00 | 0.00 | 0.00 | 72 | 1020.5 |
| 20260509191004 | 46 | 337 | 0.0 | 1.0 | 0.00 | 0.00 | 0.00 | 71 | 1020.4 |
| 20260509190503 | 46 | 337 | 0.0 | 1.0 | 0.00 | 0.00 | 0.00 | 71 | 1020.6 |
| 20260509190006 | 46 | 337 | 0.0 | 1.0 | 0.00 | 0.00 | 0.00 | 70 | 1020.5 |
| 20260509185504 | 47 | 337 | 0.0 | 1.0 | 0.00 | 0.00 | 0.00 | 68 | 1020.4 |
| 20260509185004 | 47 | 337 | 0.0 | 1.0 | 0.00 | 0.00 | 0.00 | 68 | 1020.5 |
| 20260509184505 | 47 | 337 | 0.0 | 1.0 | 0.00 | 0.00 | 0.00 | 66 | 1020.4 |
| 20260509184004 | 48 | 337 | 0.0 | 2.0 | 0.00 | 0.00 | 0.00 | 65 | 1020.5 |
| 20260509183505 | 48 | 338 | 0.0 | 2.0 | 0.00 | 0.00 | 0.00 | 65 | 1020.5 |
| 20260509183004 | 48 | 339 | 0.0 | 1.0 | 0.00 | 0.00 | 0.00 | 64 | 1020.3 |
| 20260509182504 | 49 | 339 | 0.0 | 1.0 | 0.00 | 0.00 | 0.00 | 63 | 1020.3 |
| 20260509182025 | 49 | 339 | 0.0 | 2.0 | 0.00 | 0.00 | 0.00 | 62 | 1020.4 |
| 20260509181503 | 50 | 339 | 0.0 | 2.0 | 0.00 | 0.00 | 0.00 | 61 | 1020.4 |
| 20260509181004 | 50 | 339 | 0.0 | 1.0 | 0.00 | 0.00 | 0.00 | 59 | 1020.3 |
| 20260509180525 | 50 | 0 | 0.0 | 0.0 | 0.00 | 0.00 | 0.00 | 59 | 1020.3 |
| 20260509180004 | 51 | 338 | 0.0 | 1.0 | 0.00 | 0.00 | 0.00 | 57 | 1020.2 |
| 20260509175525 | 51 | 341 | 0.0 | 2.0 | 0.00 | 0.00 | 0.00 | 56 | 1020.5 |
| 20260509175005 | 51 | 342 | 0.0 | 2.0 | 0.00 | 0.00 | 0.00 | 54 | 1020.4 |
| 20260509174526 | 52 | 346 | 0.0 | 1.0 | 0.00 | 0.00 | 0.00 | 55 | 1020.2 |
| 20260509174004 | 52 | 348 | 0.0 | 1.0 | 0.00 | 0.00 | 0.00 | 55 | 1020.4 |
| 20260509173503 | 53 | 348 | 0.0 | 2.0 | 0.00 | 0.00 | 0.00 | 53 | 1020.4 |
| 20260509173005 | 53 | 346 | 0.0 | 2.0 | 0.00 | 0.00 | 0.00 | 52 | 1020.4 |
| 20260509172504 | 53 | 347 | 1.0 | 3.0 | 0.00 | 0.00 | 0.00 | 50 | 1020.5 |
| 20260509172004 | 53 | 340 | 1.0 | 4.0 | 0.00 | 0.00 | 0.00 | 49 | 1020.5 |
| 20260509171503 | 54 | 329 | 1.0 | 4.0 | 0.00 | 0.00 | 0.00 | 50 | 1020.3 |
| 20260509171004 | 54 | 336 | 1.0 | 4.0 | 0.00 | 0.00 | 0.00 | 48 | 1020.3 |
| 20260509170504 | 54 | 354 | 1.0 | 3.0 | 0.00 | 0.00 | 0.00 | 49 | 1020.4 |
| 20260509170024 | 54 | 336 | 1.0 | 3.0 | 0.00 | 0.00 | 0.00 | 48 | 1020.4 |
| 20260509165504 | 54 | 315 | 1.0 | 3.0 | 0.00 | 0.00 | 0.00 | 46 | 1020.3 |
| 20260509165026 | 55 | 330 | 1.0 | 3.0 | 0.00 | 0.00 | 0.00 | 46 | 1020.5 |
| 20260509164504 | 55 | 337 | 1.0 | 3.0 | 0.00 | 0.00 | 0.00 | 44 | 1020.4 |
| 20260509164025 | 55 | 346 | 1.0 | 7.0 | 0.00 | 0.00 | 0.00 | 44 | 1020.4 |
| 20260509163503 | 56 | 338 | 2.0 | 8.0 | 0.00 | 0.00 | 0.00 | 44 | 1020.5 |
| 20260509163004 | 56 | 322 | 1.0 | 8.0 | 0.00 | 0.00 | 0.00 | 44 | 1020.5 |
| 20260509162503 | 56 | 321 | 1.0 | 4.0 | 0.00 | 0.00 | 0.00 | 47 | 1020.5 |
| 20260509162003 | 56 | 311 | 1.0 | 4.0 | 0.00 | 0.00 | 0.00 | 44 | 1020.4 |
| 20260509161504 | 56 | 338 | 1.0 | 4.0 | 0.00 | 0.00 | 0.00 | 45 | 1020.4 |
| 20260509161004 | 57 | 5 | 1.0 | 7.0 | 0.00 | 0.00 | 0.00 | 40 | 1020.6 |
| 20260509160524 | 57 | 351 | 2.0 | 8.0 | 0.00 | 0.00 | 0.00 | 41 | 1020.4 |
| 20260509160005 | 57 | 340 | 2.0 | 8.0 | 0.00 | 0.00 | 0.00 | 41 | 1020.5 |
| 20260509155504 | 58 | 323 | 1.0 | 7.0 | 0.00 | 0.00 | 0.00 | 43 | 1020.6 |
| 20260509155003 | 58 | 324 | 1.0 | 4.0 | 0.00 | 0.00 | 0.00 | 41 | 1020.7 |
| 20260509154504 | 58 | 352 | 1.0 | 4.0 | 0.00 | 0.00 | 0.00 | 40 | 1020.6 |
| 20260509154003 | 59 | 1 | 1.0 | 4.0 | 0.00 | 0.00 | 0.00 | 42 | 1020.6 |
| 20260509153504 | 59 | 354 | 1.0 | 4.0 | 0.00 | 0.00 | 0.00 | 43 | 1020.7 |
| 20260509153004 | 59 | 343 | 1.0 | 6.0 | 0.00 | 0.00 | 0.00 | 38 | 1020.7 |
| 20260509152504 | 59 | 331 | 1.0 | 6.0 | 0.00 | 0.00 | 0.00 | 42 | 1020.6 |
| 20260509152003 | 59 | 324 | 1.0 | 8.0 | 0.00 | 0.00 | 0.00 | 44 | 1020.6 |
| 20260509151503 | 59 | 344 | 1.0 | 8.0 | 0.00 | 0.00 | 0.00 | 46 | 1020.7 |
| 20260509151004 | 60 | 352 | 2.0 | 6.0 | 0.00 | 0.00 | 0.00 | 46 | 1020.7 |
| 20260509150504 | 60 | 1 | 1.0 | 6.0 | 0.00 | 0.00 | 0.00 | 44 | 1020.8 |
| 20260509150004 | 60 | 351 | 1.0 | 6.0 | 0.00 | 0.00 | 0.00 | 47 | 1020.5 |
| 20260509145504 | 60 | 332 | 1.0 | 6.0 | 0.00 | 0.00 | 0.00 | 44 | 1020.6 |
| 20260509145005 | 61 | 347 | 1.0 | 6.0 | 0.00 | 0.00 | 0.00 | 44 | 1020.5 |
| 20260509144504 | 61 | 2 | 1.0 | 7.0 | 0.00 | 0.00 | 0.00 | 43 | 1020.5 |
| 20260509144004 | 61 | 8 | 1.0 | 7.0 | 0.00 | 0.00 | 0.00 | 41 | 1020.8 |
| 20260509143503 | 62 | 356 | 1.0 | 6.0 | 0.00 | 0.00 | 0.00 | 41 | 1020.6 |
| 20260509143004 | 62 | 335 | 2.0 | 6.0 | 0.00 | 0.00 | 0.00 | 41 | 1020.5 |
| 20260509142524 | 62 | 322 | 2.0 | 6.0 | 0.00 | 0.00 | 0.00 | 44 | 1020.7 |
| 20260509142003 | 63 | 304 | 2.0 | 6.0 | 0.00 | 0.00 | 0.00 | 41 | 1020.7 |
| 20260509141503 | 63 | 312 | 2.0 | 7.0 | 0.00 | 0.00 | 0.00 | 40 | 1020.7 |
| 20260509141004 | 64 | 321 | 2.0 | 7.0 | 0.00 | 0.00 | 0.00 | 41 | 1020.7 |
| 20260509140503 | 64 | 324 | 1.0 | 7.0 | 0.00 | 0.00 | 0.00 | 41 | 1020.6 |
| 20260509140004 | 64 | 339 | 1.0 | 4.0 | 0.00 | 0.00 | 0.00 | 42 | 1020.7 |
| 20260509135525 | 65 | 354 | 1.0 | 6.0 | 0.00 | 0.00 | 0.00 | 37 | 1020.5 |
| 20260509135005 | 65 | 359 | 1.0 | 6.0 | 0.00 | 0.00 | 0.00 | 38 | 1020.8 |
| 20260509134525 | 65 | 357 | 1.0 | 4.0 | 0.00 | 0.00 | 0.00 | 39 | 1020.7 |
| 20260509134025 | 65 | 360 | 1.0 | 6.0 | 0.00 | 0.00 | 0.00 | 41 | 1020.7 |
| 20260509133503 | 65 | 343 | 1.0 | 6.0 | 0.00 | 0.00 | 0.00 | 39 | 1020.8 |
| 20260509133005 | 65 | 309 | 1.0 | 3.0 | 0.00 | 0.00 | 0.00 | 42 | 1020.9 |
| 20260509132504 | 65 | 304 | 1.0 | 7.0 | 0.00 | 0.00 | 0.00 | 38 | 1020.9 |
| 20260509132004 | 64 | 313 | 2.0 | 7.0 | 0.00 | 0.00 | 0.00 | 38 | 1020.8 |
| 20260509131505 | 65 | 332 | 2.0 | 7.0 | 0.00 | 0.00 | 0.00 | 35 | 1020.9 |
| 20260509131004 | 65 | 350 | 1.0 | 6.0 | 0.00 | 0.00 | 0.00 | 36 | 1020.8 |
| 20260509130524 | 65 | 358 | 1.0 | 4.0 | 0.00 | 0.00 | 0.00 | 34 | 1021.1 |
| 20260509130004 | 64 | 343 | 1.0 | 6.0 | 0.00 | 0.00 | 0.00 | 37 | 1020.9 |
| 20260509125525 | 64 | 331 | 1.0 | 6.0 | 0.00 | 0.00 | 0.00 | 38 | 1020.9 |
| 20260509125004 | 63 | 322 | 2.0 | 9.0 | 0.00 | 0.00 | 0.00 | 35 | 1021.1 |
| 20260509124504 | 64 | 269 | 2.0 | 9.0 | 0.00 | 0.00 | 0.00 | 37 | 1021.1 |
| 20260509124004 | 64 | 286 | 2.0 | 7.0 | 0.00 | 0.00 | 0.00 | 39 | 1021.0 |
| 20260509123503 | 64 | 314 | 2.0 | 7.0 | 0.00 | 0.00 | 0.00 | 43 | 1021.4 |
| 20260509123004 | 63 | 339 | 2.0 | 7.0 | 0.00 | 0.00 | 0.00 | 36 | 1021.2 |
| 20260509122504 | 64 | 20 | 2.0 | 7.0 | 0.00 | 0.00 | 0.00 | 37 | 1021.3 |
| 20260509122005 | 64 | 16 | 2.0 | 7.0 | 0.00 | 0.00 | 0.00 | 38 | 1021.2 |
| 20260509121504 | 65 | 352 | 2.0 | 6.0 | 0.00 | 0.00 | 0.00 | 41 | 1021.2 |
| 20260509121004 | 65 | 338 | 2.0 | 6.0 | 0.00 | 0.00 | 0.00 | 40 | 1021.2 |
| 20260509120503 | 64 | 345 | 1.0 | 4.0 | 0.00 | 0.00 | 0.00 | 45 | 1021.2 |
| 20260509120003 | 64 | 324 | 2.0 | 7.0 | 0.00 | 0.00 | 0.00 | 44 | 1021.2 |
| 20260509115525 | 64 | 300 | 2.0 | 7.0 | 0.00 | 0.00 | 0.00 | 40 | 1021.3 |
| 20260509115003 | 64 | 326 | 2.0 | 6.0 | 0.00 | 0.00 | 0.00 | 45 | 1021.3 |
| 20260509114503 | 65 | 11 | 2.0 | 6.0 | 0.00 | 0.00 | 0.00 | 35 | 1021.2 |
| 20260509114025 | 64 | 347 | 2.0 | 4.0 | 0.00 | 0.00 | 0.00 | 47 | 1021.3 |
| 20260509113524 | 64 | 316 | 2.0 | 11.0 | 0.00 | 0.00 | 0.00 | 38 | 1021.3 |
| 20260509113004 | 64 | 337 | 2.0 | 11.0 | 0.00 | 0.00 | 0.00 | 43 | 1021.5 |
| 20260509112525 | 63 | 323 | 2.0 | 7.0 | 0.00 | 0.00 | 0.00 | 40 | 1021.6 |
| 20260509112026 | 64 | 324 | 1.0 | 3.0 | 0.00 | 0.00 | 0.00 | 40 | 1021.5 |
| 20260509111525 | 65 | 355 | 1.0 | 9.0 | 0.00 | 0.00 | 0.00 | 36 | 1021.5 |
| 20260509111003 | 65 | 336 | 2.0 | 9.0 | 0.00 | 0.00 | 0.00 | 46 | 1021.4 |
| 20260509110504 | 64 | 330 | 2.0 | 8.0 | 0.00 | 0.00 | 0.00 | 43 | 1021.5 |
| 20260509110024 | 64 | 305 | 2.0 | 10.0 | 0.00 | 0.00 | 0.00 | 45 | 1021.6 |
| 20260509105504 | 63 | 281 | 3.0 | 10.0 | 0.00 | 0.00 | 0.00 | 44 | 1021.5 |
| 20260509105003 | 63 | 311 | 2.0 | 8.0 | 0.00 | 0.00 | 0.00 | 40 | 1021.5 |
| 20260509104503 | 65 | 17 | 1.0 | 4.0 | 0.00 | 0.00 | 0.00 | 45 | 1021.6 |
| 20260509104004 | 65 | 16 | 1.0 | 4.0 | 0.00 | 0.00 | 0.00 | 42 | 1021.5 |
| 20260509103503 | 64 | 20 | 1.0 | 6.0 | 0.00 | 0.00 | 0.00 | 45 | 1021.5 |
| 20260509103004 | 65 | 33 | 1.0 | 6.0 | 0.00 | 0.00 | 0.00 | 42 | 1021.6 |
| 20260509102504 | 64 | 35 | 1.0 | 6.0 | 0.00 | 0.00 | 0.00 | 50 | 1021.6 |
| 20260509102003 | 63 | 19 | 1.0 | 4.0 | 0.00 | 0.00 | 0.00 | 41 | 1021.6 |
| 20260509101503 | 63 | 354 | 1.0 | 6.0 | 0.00 | 0.00 | 0.00 | 47 | 1021.6 |
| 20260509101004 | 63 | 343 | 1.0 | 6.0 | 0.00 | 0.00 | 0.00 | 45 | 1021.7 |
| 20260509100524 | 64 | 318 | 1.0 | 6.0 | 0.00 | 0.00 | 0.00 | 40 | 1021.8 |
| 20260509100005 | 64 | 340 | 1.0 | 6.0 | 0.00 | 0.00 | 0.00 | 45 | 1021.9 |
| 20260509095503 | 64 | 20 | 1.0 | 6.0 | 0.00 | 0.00 | 0.00 | 42 | 1021.6 |
| 20260509095003 | 63 | 18 | 2.0 | 7.0 | 0.00 | 0.00 | 0.00 | 50 | 1021.8 |
| 20260509094503 | 63 | 349 | 2.0 | 7.0 | 0.00 | 0.00 | 0.00 | 43 | 1021.7 |
| 20260509094003 | 62 | 314 | 2.0 | 7.0 | 0.00 | 0.00 | 0.00 | 43 | 1021.7 |
| 20260509093503 | 62 | 319 | 2.0 | 7.0 | 0.00 | 0.00 | 0.00 | 41 | 1021.7 |
| 20260509093003 | 63 | 354 | 2.0 | 6.0 | 0.00 | 0.00 | 0.00 | 43 | 1021.8 |
| 20260509092503 | 62 | 349 | 2.0 | 6.0 | 0.00 | 0.00 | 0.00 | 43 | 1021.7 |
| 20260509092024 | 63 | 6 | 1.0 | 8.0 | 0.00 | 0.00 | 0.00 | 47 | 1021.7 |
| 20260509091503 | 62 | 14 | 1.0 | 8.0 | 0.00 | 0.00 | 0.00 | 46 | 1021.9 |
| 20260509091003 | 62 | 11 | 1.0 | 7.0 | 0.00 | 0.00 | 0.00 | 50 | 1021.9 |
| 20260509090503 | 62 | 20 | 1.0 | 9.0 | 0.00 | 0.00 | 0.00 | 44 | 1021.9 |
| 20260509090003 | 62 | 3 | 1.0 | 9.0 | 0.00 | 0.00 | 0.00 | 52 | 1021.9 |
| 20260509085503 | 61 | 335 | 1.0 | 3.0 | 0.00 | 0.00 | 0.00 | 47 | 1021.7 |
| 20260509085005 | 61 | 339 | 1.0 | 7.0 | 0.00 | 0.00 | 0.00 | 46 | 1021.8 |
| 20260509084505 | 61 | 343 | 1.0 | 7.0 | 0.00 | 0.00 | 0.00 | 50 | 1022.0 |
| 20260509084004 | 61 | 356 | 2.0 | 7.0 | 0.00 | 0.00 | 0.00 | 50 | 1021.9 |
| 20260509083526 | 60 | 14 | 2.0 | 7.0 | 0.00 | 0.00 | 0.00 | 49 | 1021.8 |
| 20260509083004 | 62 | 22 | 1.0 | 6.0 | 0.00 | 0.00 | 0.00 | 51 | 1021.9 |
| 20260509082505 | 62 | 16 | 1.0 | 6.0 | 0.00 | 0.00 | 0.00 | 47 | 1021.9 |
| 20260509082005 | 61 | 6 | 1.0 | 6.0 | 0.00 | 0.00 | 0.00 | 48 | 1021.8 |
| 20260509081506 | 61 | 345 | 1.0 | 4.0 | 0.00 | 0.00 | 0.00 | 49 | 1021.8 |
| 20260509081005 | 60 | 350 | 1.0 | 4.0 | 0.00 | 0.00 | 0.00 | 49 | 1021.9 |
| 20260509080526 | 60 | 5 | 1.0 | 3.0 | 0.00 | 0.00 | 0.00 | 50 | 1022.0 |
| 20260509080005 | 59 | 321 | 1.0 | 4.0 | 0.00 | 0.00 | 0.00 | 52 | 1021.9 |
| 20260509075504 | 58 | 293 | 1.0 | 4.0 | 0.00 | 0.00 | 0.00 | 55 | 1021.9 |
| 20260509075005 | 58 | 295 | 1.0 | 4.0 | 0.00 | 0.00 | 0.00 | 61 | 1021.7 |
| 20260509074504 | 58 | 312 | 1.0 | 7.0 | 0.00 | 0.00 | 0.00 | 56 | 1021.9 |
| 20260509074006 | 57 | 338 | 1.0 | 7.0 | 0.00 | 0.00 | 0.00 | 59 | 1022.1 |
| 20260509073505 | 57 | 2 | 1.0 | 3.0 | 0.00 | 0.00 | 0.00 | 60 | 1022.0 |
| 20260509073027 | 56 | 332 | 1.0 | 4.0 | 0.00 | 0.00 | 0.00 | 61 | 1022.0 |
| 20260509072504 | 55 | 323 | 1.0 | 4.0 | 0.00 | 0.00 | 0.00 | 66 | 1022.0 |
| 20260509072026 | 55 | 3 | 1.0 | 4.0 | 0.00 | 0.00 | 0.00 | 64 | 1021.9 |
| 20260509071525 | 54 | 2 | 1.0 | 4.0 | 0.00 | 0.00 | 0.00 | 69 | 1022.2 |
| 20260509071004 | 54 | 357 | 1.0 | 3.0 | 0.00 | 0.00 | 0.00 | 66 | 1022.1 |
| 20260509070505 | 54 | 340 | 1.0 | 4.0 | 0.00 | 0.00 | 0.00 | 68 | 1022.1 |
| 20260509070006 | 53 | 347 | 1.0 | 4.0 | 0.00 | 0.00 | 0.00 | 73 | 1022.1 |
| 20260509065505 | 53 | 3 | 1.0 | 3.0 | 0.00 | 0.00 | 0.00 | 70 | 1022.0 |
| 20260509065004 | 52 | 7 | 1.0 | 3.0 | 0.00 | 0.00 | 0.00 | 70 | 1022.1 |
| 20260509064504 | 51 | 9 | 0.0 | 2.0 | 0.00 | 0.00 | 0.00 | 74 | 1022.0 |
| 20260509064005 | 51 | 360 | 1.0 | 2.0 | 0.00 | 0.00 | 0.00 | 77 | 1022.1 |
| 20260509063504 | 51 | 352 | 1.0 | 2.0 | 0.00 | 0.00 | 0.00 | 74 | 1022.1 |
| 20260509063004 | 51 | 348 | 0.0 | 2.0 | 0.00 | 0.00 | 0.00 | 77 | 1022.1 |
| 20260509062504 | 50 | 349 | 1.0 | 3.0 | 0.00 | 0.00 | 0.00 | 80 | 1022.0 |
| 20260509062004 | 49 | 355 | 1.0 | 3.0 | 0.00 | 0.00 | 0.00 | 78 | 1022.0 |
| 20260509061505 | 49 | 355 | 1.0 | 3.0 | 0.00 | 0.00 | 0.00 | 81 | 1022.1 |
| 20260509061004 | 48 | 348 | 1.0 | 3.0 | 0.00 | 0.00 | 0.00 | 82 | 1022.1 |
| 20260509060504 | 48 | 326 | 1.0 | 4.0 | 0.00 | 0.00 | 0.00 | 83 | 1022.0 |
| 20260509060005 | 48 | 317 | 1.0 | 4.0 | 0.00 | 0.00 | 0.00 | 85 | 1021.8 |
| 20260509055526 | 47 | 333 | 1.0 | 3.0 | 0.00 | 0.00 | 0.00 | 88 | 1021.9 |
| 20260509055005 | 46 | 333 | 1.0 | 3.0 | 0.00 | 0.00 | 0.00 | 94 | 1021.9 |
| 20260509054505 | 46 | 333 | 0.0 | 2.0 | 0.00 | 0.00 | 0.00 | 96 | 1021.9 |
| 20260509054005 | 45 | 333 | 0.0 | 2.0 | 0.00 | 0.00 | 0.00 | 97 | 1022.0 |
| 20260509053525 | 45 | 334 | 0.0 | 1.0 | 0.00 | 0.00 | 0.00 | 99 | 1022.0 |
| 20260509053004 | 44 | 333 | 1.0 | 2.0 | 0.00 | 0.00 | 0.00 | 99 | 1021.9 |
| 20260509052504 | 43 | 333 | 1.0 | 2.0 | 0.00 | 0.00 | 0.00 | 99 | 1021.9 |
| 20260509052004 | 43 | 334 | 1.0 | 2.0 | 0.00 | 0.00 | 0.00 | 99 | 1021.8 |
| 20260509051504 | 42 | 334 | 0.0 | 1.0 | 0.00 | 0.00 | 0.00 | 99 | 1022.0 |
| 20260509051005 | 42 | 334 | 0.0 | 1.0 | 0.00 | 0.00 | 0.00 | 99 | 1021.8 |
| 20260509050525 | 41 | 333 | 0.0 | 1.0 | 0.00 | 0.00 | 0.00 | 99 | 1021.7 |
| 20260509050025 | 40 | 333 | 1.0 | 2.0 | 0.00 | 0.00 | 0.00 | 99 | 1021.8 |
| 20260509045505 | 39 | 333 | 1.0 | 2.0 | 0.00 | 0.00 | 0.00 | 99 | 1021.8 |
| 20260509045025 | 39 | 333 | 0.0 | 1.0 | 0.00 | 0.00 | 0.00 | 99 | 1021.8 |
| 20260509044505 | 38 | 333 | 0.0 | 1.0 | 0.00 | 0.00 | 0.00 | 99 | 1021.8 |
| 20260509044004 | 37 | 0 | 0.0 | 0.0 | 0.00 | 0.00 | 0.00 | 99 | 1021.6 |
| 20260509043505 | 36 | 0 | 0.0 | 0.0 | 0.00 | 0.00 | 0.00 | 99 | 1021.6 |
| 20260509043005 | 36 | 0 | 0.0 | 0.0 | 0.00 | 0.00 | 0.00 | 99 | 1021.9 |
| 20260509042505 | 36 | 0 | 0.0 | 0.0 | 0.00 | 0.00 | 0.00 | 99 | 1021.7 |
| 20260509042005 | 36 | 0 | 0.0 | 0.0 | 0.00 | 0.00 | 0.00 | 99 | 1021.6 |
| 20260509041504 | 35 | 332 | 0.0 | 1.0 | 0.00 | 0.00 | 0.00 | 99 | 1021.7 |
| 20260509041025 | 35 | 332 | 0.0 | 1.0 | 0.00 | 0.00 | 0.00 | 99 | 1021.7 |
| 20260509040525 | 35 | 332 | 0.0 | 1.0 | 0.00 | 0.00 | 0.00 | 99 | 1022.0 |
| 20260509040025 | 34 | 0 | 0.0 | 0.0 | 0.00 | 0.00 | 0.00 | 99 | 1021.8 |
| 20260509035525 | 34 | 0 | 0.0 | 0.0 | 0.00 | 0.00 | 0.00 | 99 | 1021.7 |
| 20260509035004 | 34 | 0 | 0.0 | 0.0 | 0.00 | 0.00 | 0.00 | 99 | 1021.7 |
| 20260509034505 | 34 | 0 | 0.0 | 0.0 | 0.00 | 0.00 | 0.00 | 99 | 1021.6 |
| 20260509034005 | 34 | 0 | 0.0 | 0.0 | 0.00 | 0.00 | 0.00 | 99 | 1021.8 |
| 20260509033504 | 34 | 0 | 0.0 | 0.0 | 0.00 | 0.00 | 0.00 | 99 | 1021.9 |
| 20260509033004 | 34 | 0 | 0.0 | 0.0 | 0.00 | 0.00 | 0.00 | 98 | 1021.7 |
| 20260509032525 | 34 | 0 | 0.0 | 0.0 | 0.00 | 0.00 | 0.00 | 98 | 1021.7 |
| 20260509032004 | 35 | 0 | 0.0 | 0.0 | 0.00 | 0.00 | 0.00 | 98 | 1021.8 |
| 20260509031504 | 35 | 0 | 0.0 | 0.0 | 0.00 | 0.00 | 0.00 | 98 | 1021.9 |
| 20260509031004 | 35 | 0 | 0.0 | 0.0 | 0.00 | 0.00 | 0.00 | 99 | 1021.7 |
| 20260509030504 | 35 | 0 | 0.0 | 0.0 | 0.00 | 0.00 | 0.00 | 99 | 1021.7 |
| 20260509030005 | 35 | 0 | 0.0 | 0.0 | 0.00 | 0.00 | 0.00 | 98 | 1021.8 |
| 20260509025525 | 35 | 0 | 0.0 | 0.0 | 0.00 | 0.00 | 0.00 | 98 | 1021.9 |
| 20260509025005 | 35 | 0 | 0.0 | 0.0 | 0.00 | 0.00 | 0.00 | 98 | 1021.9 |
| 20260509024525 | 35 | 0 | 0.0 | 0.0 | 0.00 | 0.00 | 0.00 | 98 | 1021.8 |
| 20260509024004 | 35 | 0 | 0.0 | 0.0 | 0.00 | 0.00 | 0.00 | 98 | 1021.8 |
| 20260509023504 | 35 | 0 | 0.0 | 0.0 | 0.00 | 0.00 | 0.00 | 98 | 1021.8 |
| 20260509023005 | 35 | 0 | 0.0 | 0.0 | 0.00 | 0.00 | 0.00 | 98 | 1021.9 |
| 20260509022504 | 35 | 0 | 0.0 | 0.0 | 0.00 | 0.00 | 0.00 | 98 | 1021.8 |
| 20260509022005 | 36 | 0 | 0.0 | 0.0 | 0.00 | 0.00 | 0.00 | 98 | 1022.0 |
| 20260509021504 | 36 | 0 | 0.0 | 0.0 | 0.00 | 0.00 | 0.00 | 98 | 1021.7 |
| 20260509021004 | 36 | 0 | 0.0 | 0.0 | 0.00 | 0.00 | 0.00 | 98 | 1021.9 |
| 20260509020504 | 36 | 0 | 0.0 | 0.0 | 0.00 | 0.00 | 0.00 | 98 | 1021.8 |
| 20260509020005 | 36 | 0 | 0.0 | 0.0 | 0.00 | 0.00 | 0.00 | 98 | 1021.8 |
| 20260509015525 | 36 | 0 | 0.0 | 0.0 | 0.00 | 0.00 | 0.00 | 98 | 1022.0 |
| 20260509015004 | 36 | 0 | 0.0 | 0.0 | 0.00 | 0.00 | 0.00 | 98 | 1021.9 |
| 20260509014505 | 36 | 0 | 0.0 | 0.0 | 0.00 | 0.00 | 0.00 | 98 | 1021.9 |
| 20260509014004 | 36 | 0 | 0.0 | 0.0 | 0.00 | 0.00 | 0.00 | 98 | 1021.8 |
| 20260509013504 | 36 | 0 | 0.0 | 0.0 | 0.00 | 0.00 | 0.00 | 98 | 1021.7 |
| 20260509013005 | 36 | 0 | 0.0 | 0.0 | 0.00 | 0.00 | 0.00 | 98 | 1021.9 |
| 20260509012504 | 36 | 0 | 0.0 | 0.0 | 0.00 | 0.00 | 0.00 | 98 | 1021.8 |
| 20260509012004 | 37 | 0 | 0.0 | 0.0 | 0.00 | 0.00 | 0.00 | 97 | 1021.7 |
| 20260509011504 | 37 | 0 | 0.0 | 0.0 | 0.00 | 0.00 | 0.00 | 97 | 1021.7 |
| 20260509011005 | 37 | 0 | 0.0 | 0.0 | 0.00 | 0.00 | 0.00 | 97 | 1021.8 |
| 20260509010505 | 38 | 0 | 0.0 | 0.0 | 0.00 | 0.00 | 0.00 | 97 | 1021.7 |
| 20260509010025 | 38 | 0 | 0.0 | 0.0 | 0.00 | 0.00 | 0.00 | 97 | 1021.9 |
| 20260509005504 | 38 | 332 | 0.0 | 1.0 | 0.00 | 0.00 | 0.00 | 97 | 1021.8 |
| 20260509005004 | 38 | 332 | 0.0 | 1.0 | 0.00 | 0.00 | 0.00 | 97 | 1021.8 |
| 20260509004504 | 38 | 332 | 0.0 | 1.0 | 0.00 | 0.00 | 0.00 | 97 | 1021.6 |
| 20260509004004 | 39 | 332 | 0.0 | 1.0 | 0.00 | 0.00 | 0.00 | 98 | 1021.7 |
| 20260509003504 | 39 | 332 | 0.0 | 1.0 | 0.00 | 0.00 | 0.00 | 98 | 1021.8 |
| 20260509003004 | 39 | 332 | 0.0 | 1.0 | 0.00 | 0.00 | 0.00 | 98 | 1021.8 |
| 20260509002505 | 39 | 332 | 0.0 | 1.0 | 0.00 | 0.00 | 0.00 | 98 | 1021.8 |
| 20260509002005 | 39 | 332 | 1.0 | 2.0 | 0.00 | 0.00 | 0.00 | 98 | 1021.9 |
| 20260509001525 | 39 | 333 | 1.0 | 3.0 | 0.00 | 0.00 | 0.00 | 98 | 1021.7 |
| 20260509001025 | 39 | 334 | 1.0 | 3.0 | 0.00 | 0.00 | 0.00 | 98 | 1021.8 |
| 20260509000504 | 39 | 341 | 1.0 | 2.0 | 0.00 | 0.00 | 0.00 | 98 | 1021.7 |
| 20260509000025 | 39 | 345 | 1.0 | 2.0 | 0.00 | 0.00 | 0.00 | 98 | 1021.8 |
| 20260508235504 | 38 | 346 | 0.0 | 1.0 | 0.00 | 0.00 | 0.00 | 98 | 1021.8 |
| 20260508235004 | 38 | 0 | 0.0 | 0.0 | 0.00 | 0.00 | 0.00 | 98 | 1022.0 |
| 20260508234504 | 38 | 0 | 0.0 | 0.0 | 0.00 | 0.00 | 0.00 | 98 | 1022.0 |
| 20260508234004 | 38 | 0 | 0.0 | 0.0 | 0.00 | 0.00 | 0.00 | 97 | 1022.0 |